RH
80 63 49 41 20 20 29 32 34 39 44 59 76 87 87 94 100 100 100 100 100 100 100 100 100 97 88 89 94 87 55 48 45 54 32 35 41 66 74 92 96 83 69 25
79 61 40 28 25 29 33 36 33 36 52 62 71 86 88 94 96 100 100 100 100 100 100 100 100 62 67 86 96 96 84 72 61 44 53 60 77 83 84 100 95 78 41 20
76 48 37 28 33 33 31 30 36 48 64 65 70 82 90 98 100 100 100 100 96 100 100 100 98 98 71 51 86 88 86 81 80 92 96 93 85 81 82 98 87 55 32 12
70 45 41 36 37 32 30 28 39 50 58 65 65 73 86 99 100 100 100 100 100 100 100 100 99 83 86 90 96 96 94 92 100 92 88 89 84 85 91 98 90 51 22 12
51 55 54 39 33 32 35 34 36 50 57 59 62 72 82 94 99 99 100 100 100 100 100 100 100 91 76 80 92 87 92 76 70 74 85 82 71 82 97 97 73 22 18 12
51 54 44 39 35 32 36 39 41 45 54 59 61 60 70 79 89 96 100 100 100 100 100 100 100 99 100 95 96 95 96 100 96 71 81 84 67 100 96 95 24 20 14 10
50 49 43 40 42 40 43 40 44 46 50 54 58 63 66 72 80 88 92 98 99 98 100 100 100 97 99 99 100 100 98 98 85 68 83 72 72 74 86 30 20 17 11 9
60 54 46 44 45 41 43 42 40 44 49 50 51 57 65 67 66 64 66 89 94 99 98 89 83 80 85 94 93 85 77 91 84 74 68 61 68 36 29 21 20 13 10 8
61 54 49 42 40 45 40 39 38 45 48 48 48 51 54 56 61 61 57 54 55 66 75 85 95 98 84 74 79 75 77 48 41 49 53 53 38 24 25 20 17 11 10 8
64 56 48 43 42 43 45 47 43 49 50 40 37 37 39 40 39 38 38 42 38 38 43 51 52 56 65 72 79 63 46 44 37 31 32 32 24 23 19 17 14 12 10 8
60 55 48 44 44 44 48 55 49 48 51 48 42 36 33 29 26 24 23 21 24 25 28 30 30 36 40 43 43 44 37 36 34 28 23 21 22 21 18 16 15 10 7 6
68 60 55 54 53 51 47 48 44 42 38 31 32 30 27 24 20 22 24 24 22 20 18 20 23 26 27 26 28 26 26 25 24 25 25 25 25 25 24 18 13 10 8 7
71 65 63 62 59 54 48 44 40 35 30 24 22 18 16 15 13 12 11 12 16 18 20 19 18 19 21 20 20 18 18 17 17 18 19 18 16 17 17 17 16 13 8 7
71 70 64 55 42 34 33 29 26 26 25 23 18 16 14 12 11 10 10 10 12 12 13 14 15 16 16 16 17 20 16 15 16 17 16 16 15 12 10 8 8 7 6 6
58 50 42 38 34 28 26 24 23 25 26 23 19 15 12 11 11 10 10 10 10 12 12 11 10 10 10 10 12 16 15 14 14 13 11 10 9 12 9 8 7 7 6 6
43 29 21 18 17 16 15 14 12 11 10 10 9 9 10 14 11 10 10 10 9 8 9 9 9 8 9 8 8 8 10 13 13 11 10 9 8 8 8 7 7 7 6 5
22 22 20 18 15 14 12 11 10 10 9 9 8 9 16 13 18 17 13 10 8 8 7 6 7 8 9 7 6 8 11 10 9 10 10 9 9 9 9 8 7 7 7 6
19 16 14 12 11 10 10 11 13 15 16 17 17 20 34 35 28 24 31 26 19 12 14 10 9 8 8 6 6 9 9 8 11 11 8 6 7 7 7 7 7 7 8 7
14 12 10 10 12 15 19 24 29 42 53 43 29 59 59 45 50 30 30 20 14 15 13 14 18 12 7 14 10 13 35 15 25 9 7 7 7 9 8 9 9 8 8 8
10 11 15 20 20 29 30 41 56 50 46 35 27 47 35 41 65 58 36 45 56 90 75 60 62 95 99 89 70 52 70 89 74 50 43 43 30 26 13 16 18 27 20 17
18 22 24 27 29 30 40 46 41 31 28 26 28 30 46 75 79 100 100 99 98 100 96 98 100 100 100 100 100 63 60 63 46 32 38 40 42 33 41 59 64 47 22 19
24 30 34 37 36 34 63 71 52 37 33 30 31 46 74 100 99 91 89 99 100 99 100 100 100 100 100 100 100 70 48 40 38 66 90 85 49 48 56 55 44 34 23 21
41 40 36 35 44 70 84 69 50 45 41 50 77 85 100 96 67 94 100 100 100 100 100 100 100 100 100 100 100 94 62 56 70 71 71 100 100 88 84 85 68 72 26 38
37 34 32 34 44 60 68 62 50 46 46 80 86 98 100 91 100 100 100 100 100 100 99 100 100 100 100 100 100 100 100 90 99 98 69 99 100 100 94 98 100 82 90 62
45 40 42 44 61 75 74 59 48 39 78 84 94 98 100 100 100 100 100 100 100 100 100 100 100 100 100 100 100 100 100 100 100 98 89 98 85 100 100 100 100 100 86 98
57 54 50 52 41 48 52 49 41 49 86 99 100 100 100 100 100 99 100 100 96 97 100 100 100 100 100 98 99 100 100 100 100 100 100 92 97 100 100 100 97 98 100 100
44 46 46 38 31 34 42 40 36 68 97 100 99 100 100 100 100 96 81 84 95 94 94 96 100 100 100 95 100 98 97 100 100 100 97 100 100 100 100 100 100 100 100 100
Wind_Speed
55 54 52 54 46 39 37 38 40 38 39 36 33 33 34 31 31 36 35 32 36 39 40 42 38 37 41 42 42 41 40 45 42 44 43 44 46 42 39 39 36 37 33 27
51 50 45 40 39 35 35 37 38 38 37 34 33 32 32 30 28 28 33 35 38 45 45 42 41 41 40 40 42 42 42 46 43 44 45 47 46 40 38 38 36 33 33 25
48 44 38 35 31 32 33 35 35 35 34 33 32 31 30 26 29 29 29 33 38 41 45 44 42 37 39 41 41 39 41 44 45 46 45 44 43 43 40 36 34 28 30 27
42 40 37 35 34 34 35 35 33 33 33 31 31 31 27 26 25 28 28 31 33 34 41 44 40 38 41 44 43 44 47 47 41 42 43 44 45 41 37 31 24 30 27 31
39 37 35 33 34 34 35 35 34 32 34 32 30 29 29 26 26 26 27 33 35 34 34 39 41 43 47 48 44 47 47 45 43 42 41 40 37 30 27 27 19 27 29 30
36 35 35 33 34 35 35 35 35 34 32 31 30 29 30 29 28 28 25 25 29 32 36 39 40 42 43 44 44 44 43 42 42 40 35 34 28 18 24 17 23 24 26 30
39 36 36 34 33 34 35 37 36 35 33 31 31 30 30 30 29 30 29 28 28 27 27 30 33 34 35 33 30 30 28 30 33 33 32 29 19 20 18 21 22 22 24 29
37 37 36 35 35 35 35 36 36 35 33 33 32 31 30 30 31 32 32 30 30 30 30 30 31 31 32 28 25 24 25 28 30 32 29 26 17 19 19 20 20 22 22 24
37 37 35 34 33 32 34 34 35 34 31 31 32 31 30 30 32 33 34 35 34 33 33 33 34 34 33 32 29 26 27 30 32 30 30 25 20 20 21 21 18 24 26 27
36 37 33 33 34 33 33 33 33 34 31 30 30 29 29 30 31 32 33 35 35 36 36 36 37 36 35 35 33 32 34 34 34 33 31 24 23 27 26 22 26 25 27 27
36 35 34 34 35 35 34 33 35 35 34 34 33 32 31 32 34 33 33 33 35 36 37 38 38 39 39 39 37 37 36 39 38 34 31 28 28 28 27 26 26 25 27 26
38 36 35 36 37 36 36 36 38 39 39 38 38 40 39 39 39 38 38 38 39 39 39 40 41 41 41 39 37 37 38 37 38 37 31 30 31 29 28 27 29 30 29 29
37 37 37 37 36 36 38 40 42 44 44 45 46 46 47 49 49 48 46 46 47 46 46 46 46 44 42 40 39 37 37 38 38 37 33 33 32 32 33 36 36 33 30 28
37 36 36 37 37 40 43 45 48 50 51 51 53 55 56 56 56 53 53 52 50 52 53 54 52 49 47 45 45 44 42 43 42 38 40 38 35 35 35 36 36 33 32 31
34 36 38 40 43 46 49 53 56 59 60 61 61 61 60 59 56 57 59 60 60 57 58 60 59 57 55 54 55 49 48 47 47 43 44 45 39 39 40 36 37 36 34 33
40 41 42 45 49 52 54 57 61 62 63 64 64 62 57 47 51 55 57 58 62 66 66 64 65 60 62 65 63 51 51 49 44 49 50 49 44 42 41 39 39 39 35 35
43 46 50 53 55 57 59 58 58 56 54 54 55 52 33 37 40 45 52 57 59 60 63 65 62 59 58 68 66 45 38 42 47 56 58 59 51 48 45 48 45 43 41 40
49 52 53 54 54 54 51 49 44 42 42 41 41 32 23 29 35 40 43 45 49 50 49 46 44 47 53 60 37 27 40 50 50 51 56 55 51 52 46 48 47 45 42 40
51 51 49 47 44 38 35 34 31 28 30 30 25 23 20 21 19 27 27 30 30 31 24 19 29 29 24 11 23 32 37 42 43 52 51 48 45 43 40 40 39 38 39 35
44 41 37 32 29 28 26 25 26 27 27 29 21 19 15 15 14 13 16 14 9 12 3 4 5 10 4 7 12 25 26 20 27 31 29 23 21 18 24 24 30 33 37 33
32 28 24 22 21 22 21 21 23 25 24 20 17 14 10 5 5 9 13 8 10 10 9 8 12 9 9 9 3 13 13 13 11 10 14 15 19 18 20 25 27 35 34 32
22 18 18 19 19 16 16 20 24 24 16 11 12 10 6 3 7 7 6 9 14 10 11 18 14 10 7 7 5 14 13 13 10 9 6 7 12 18 20 23 27 30 29 33
18 19 20 20 20 15 17 19 20 16 7 13 14 11 9 6 4 4 6 8 9 12 16 17 17 10 7 4 7 10 11 12 12 15 14 16 15 16 18 24 28 22 30 39
17 18 19 17 16 17 17 20 17 12 13 19 15 15 6 4 4 4 2 7 12 13 11 9 8 6 3 4 2 7 7 11 11 12 10 12 17 24 18 21 24 29 33 40
18 20 16 12 14 15 17 19 14 12 23 19 17 11 5 2 2 6 8 13 11 11 10 6 8 4 2 4 1 2 11 11 9 10 9 20 18 18 25 27 29 30 34 30
19 18 17 18 18 19 21 19 14 23 25 20 17 11 5 2 3 5 10 11 13 13 13 8 7 5 4 4 4 4 11 13 10 11 14 23 20 28 29 28 29 29 22 27
19 19 20 23 23 21 21 17 17 32 26 17 16 14 10 7 4 4 6 10 12 14 15 12 7 4 8 8 8 10 13 16 17 21 22 22 29 29 28 27 22 27 29 25
Wind_Direction
300 305 303 302 294 295 298 297 306 310 311 308 300 293 292 285 265 253 251 251 249 248 252 245 238 239 242 245 248 253 257 260 264 271 275 279 284 290 291 281 280 283 289 290
298 299 290 289 291 296 296 298 302 306 308 306 302 294 290 283 270 258 255 254 244 241 254 256 244 234 244 253 261 256 258 265 268 270 274 277 283 286 284 282 280 281 282 297
291 285 280 283 288 294 294 296 302 302 301 300 298 293 288 284 277 264 258 256 250 247 252 255 248 242 243 248 256 261 264 268 271 275 280 284 285 284 280 285 279 278 284 294
283 280 279 282 288 292 294 296 299 298 298 296 291 289 287 285 277 269 264 257 253 249 247 248 243 243 244 248 254 259 265 272 270 273 278 281 282 279 272 275 273 278 292 292
279 277 278 278 283 288 293 295 296 297 296 293 287 286 284 283 281 276 269 261 254 248 248 242 240 242 245 251 256 261 264 269 273 274 278 280 277 276 268 262 270 277 285 294
276 276 277 281 285 287 290 291 293 295 292 289 285 284 282 280 278 276 274 267 257 251 249 250 252 256 258 260 259 262 266 270 274 272 275 276 278 276 267 264 269 278 284 293
273 275 277 280 283 286 289 289 291 292 289 285 281 277 273 274 276 275 271 269 269 263 257 254 252 252 252 255 260 263 267 267 265 269 270 272 276 271 268 267 271 279 291 295
275 276 276 278 282 286 287 287 289 290 289 286 284 279 273 270 268 267 267 268 266 264 261 256 256 257 259 261 260 263 263 259 262 261 267 274 272 274 268 268 264 280 286 290
274 273 275 279 283 285 284 284 286 285 286 285 286 281 275 272 270 268 267 265 262 261 260 260 260 259 261 262 262 260 261 259 257 262 265 269 270 269 267 268 275 282 285 294
272 273 274 279 282 284 283 283 283 284 284 284 282 279 277 276 272 271 269 269 269 267 262 261 261 260 259 258 258 258 260 261 262 260 263 265 269 275 272 272 269 280 286 288
275 275 278 280 281 282 283 285 284 284 284 283 281 279 278 276 275 273 272 270 269 268 268 266 262 261 258 256 257 257 257 259 259 260 262 263 261 263 268 274 280 280 281 283
275 277 278 280 282 283 283 283 283 284 285 285 283 283 281 280 278 276 275 272 269 267 265 264 264 262 260 259 259 258 257 257 257 258 260 259 264 266 267 266 263 270 277 276
278 280 281 282 284 285 285 285 284 284 283 283 284 283 282 279 279 279 278 275 271 269 266 265 265 264 263 263 261 259 258 257 258 257 260 261 261 265 266 265 267 269 272 267
283 284 284 285 288 288 288 288 287 286 283 282 282 282 282 282 281 279 278 274 269 267 265 264 264 264 264 263 262 261 263 263 261 262 262 259 260 257 255 260 267 268 270 268
283 285 287 290 290 290 290 290 288 286 284 282 280 280 279 279 279 277 275 273 270 266 264 264 265 266 265 264 263 265 265 264 265 269 265 262 256 254 258 263 264 264 263 264
287 288 290 292 292 291 291 289 287 285 283 283 282 279 278 284 279 275 270 267 266 267 266 265 265 269 266 267 266 266 265 263 263 264 264 261 259 258 260 259 255 254 257 256
292 295 295 294 292 292 290 287 286 284 285 283 282 283 289 274 267 263 264 267 267 266 266 268 270 268 267 266 263 269 270 264 263 259 255 257 259 258 246 252 252 249 247 248
296 295 293 292 291 289 287 287 287 286 283 282 286 293 279 259 258 258 265 268 271 275 278 279 278 266 264 264 277 253 241 241 241 246 253 260 259 259 255 251 247 243 241 243
293 292 292 290 288 289 288 285 286 285 286 288 292 294 291 279 274 271 280 284 283 283 288 278 262 268 276 238 212 212 218 232 234 245 252 255 254 254 252 251 248 238 237 233
293 291 289 290 291 288 291 290 290 291 290 292 290 284 277 274 274 288 299 314 346 76 53 317 23 75 132 197 204 204 209 231 238 246 256 263 273 237 236 218 217 218 225 218
286 286 288 289 292 291 294 295 288 292 291 288 266 245 242 282 299 316 307 360 19 28 30 59 65 84 64 82 152 204 226 241 254 258 246 249 227 209 207 200 210 214 218 207
280 282 287 293 296 299 298 288 292 301 295 266 218 204 176 189 274 294 340 7 14 27 50 52 68 100 145 166 214 189 208 222 202 197 213 203 202 213 210 210 214 216 209 192
279 284 289 291 291 293 291 287 292 296 256 193 173 183 179 233 305 313 346 35 53 58 53 43 59 75 89 42 227 226 219 212 205 189 197 201 207 216 211 210 205 197 183 182
286 287 287 286 292 287 273 275 292 282 196 178 186 191 190 227 204 268 84 58 68 36 29 320 344 11 31 36 54 202 206 200 183 173 156 174 183 185 188 169 163 168 174 184
293 291 293 298 282 269 265 271 274 228 182 189 191 192 179 134 47 26 32 18 5 309 294 318 304 265 293 229 45 190 170 163 160 176 177 177 166 184 177 172 168 169 178 179
291 292 289 274 266 262 258 267 247 192 189 194 196 190 171 209 108 36 325 304 289 296 297 291 283 265 266 254 249 206 181 171 169 161 175 174 188 171 165 164 168 169 167 162
295 291 278 273 272 269 265 266 217 188 193 194 187 191 189 175 206 217 241 276 306 304 298 281 288 232 264 260 247 198 185 171 157 165 174 178 170 161 164 166 166 160 155 151